Year,Month,Day,Hour,Minute,Value (Times are PST for temperature in C)
2015,06,24,10,02,21.40
2015,06,24,10,03,21.40
2015,06,24,10,04,21.50
2015,06,24,10,05,21.60
2015,06,24,10,06,21.60
2015,06,24,10,07,21.60
2015,06,24,10,08,21.70
2015,06,24,10,09,21.80
2015,06,24,10,10,21.80
2015,06,24,10,11,21.80
2015,06,24,10,12,21.70
2015,06,24,10,13,21.70
2015,06,24,10,14,21.70
2015,06,24,10,15,21.70
2015,06,24,10,16,21.70
2015,06,24,10,17,21.70
2015,06,24,10,18,21.70
2015,06,24,10,19,21.60
2015,06,24,10,20,21.60
2015,06,24,10,21,21.50
2015,06,24,10,22,21.40
2015,06,24,10,23,21.60
2015,06,24,10,24,21.60
2015,06,24,10,25,21.60
2015,06,24,10,26,21.60
2015,06,24,10,27,21.60
2015,06,24,10,28,21.60
2015,06,24,10,29,21.60
2015,06,24,10,30,21.70
2015,06,24,10,31,21.70
2015,06,24,10,32,21.80
2015,06,24,10,33,21.80
2015,06,24,10,34,21.80
2015,06,24,10,35,21.70
2015,06,24,10,36,21.70
2015,06,24,10,37,21.60
2015,06,24,10,38,21.70
2015,06,24,10,39,21.70
2015,06,24,10,40,21.80
2015,06,24,10,41,21.90
2015,06,24,10,42,21.90
2015,06,24,10,43,22.00
2015,06,24,10,44,22.10
2015,06,24,10,45,22.10
2015,06,24,10,46,22.20
2015,06,24,10,47,22.30
2015,06,24,10,48,22.30
2015,06,24,10,49,22.40
2015,06,24,10,50,22.40
2015,06,24,10,51,22.40
2015,06,24,10,52,22.40
2015,06,24,10,53,22.30
2015,06,24,10,54,22.20
2015,06,24,10,55,22.10
2015,06,24,10,56,22.00
2015,06,24,10,57,22.00
2015,06,24,10,58,22.00
2015,06,24,10,59,22.00
2015,06,24,11,00,22.00
2015,06,24,11,01,22.10
2015,06,24,11,02,22.10
2015,06,24,11,03,22.10
2015,06,24,11,04,22.00
2015,06,24,11,05,22.00
2015,06,24,11,06,21.90
2015,06,24,11,07,21.80
2015,06,24,11,08,21.80
2015,06,24,11,09,21.70
2015,06,24,11,10,21.60
2015,06,24,11,11,21.60
2015,06,24,11,12,21.60
2015,06,24,11,13,21.60
2015,06,24,11,14,21.60
2015,06,24,11,15,21.60
2015,06,24,11,16,21.50
2015,06,24,11,17,21.50
2015,06,24,11,18,21.60
2015,06,24,11,19,21.40
2015,06,24,11,20,21.40
2015,06,24,11,21,21.40
2015,06,24,11,22,21.40
2015,06,24,11,23,21.40
2015,06,24,11,24,21.40
2015,06,24,11,25,21.30
2015,06,24,11,26,21.30
2015,06,24,11,27,21.40
2015,06,24,11,28,21.40
2015,06,24,11,29,21.40
2015,06,24,11,30,21.40
2015,06,24,11,31,21.50
2015,06,24,11,32,21.60
2015,06,24,11,33,21.60
2015,06,24,11,34,21.60
2015,06,24,11,35,21.60
2015,06,24,11,36,21.60
2015,06,24,11,37,21.60
2015,06,24,11,38,21.60
2015,06,24,11,39,21.60
2015,06,24,11,40,21.60
2015,06,24,11,41,21.60
2015,06,24,11,42,21.60
2015,06,24,11,43,21.60
2015,06,24,11,44,21.60
2015,06,24,11,45,21.60
2015,06,24,11,46,21.60
2015,06,24,11,47,21.60
2015,06,24,11,48,21.60
2015,06,24,11,49,21.70
2015,06,24,11,50,21.70
2015,06,24,11,51,21.70
2015,06,24,11,52,21.70
2015,06,24,11,53,21.70
2015,06,24,11,54,21.70
2015,06,24,11,55,21.70
2015,06,24,11,56,21.70
2015,06,24,11,57,21.70
2015,06,24,11,58,21.70
2015,06,24,11,59,21.70
2015,06,24,12,00,21.60
2015,06,24,12,01,21.60
2015,06,24,12,02,21.60
2015,06,24,12,03,21.60
2015,06,24,12,04,21.60
2015,06,24,12,05,21.60
2015,06,24,12,06,21.60
2015,06,24,12,07,21.60
2015,06,24,12,08,21.60
2015,06,24,12,09,21.70
2015,06,24,12,10,21.80
2015,06,24,12,11,21.80
2015,06,24,12,12,21.90
2015,06,24,12,13,21.90
2015,06,24,12,14,21.90
2015,06,24,12,15,22.00
2015,06,24,12,16,22.00
2015,06,24,12,17,22.00
2015,06,24,12,18,22.00
2015,06,24,12,19,22.00
2015,06,24,12,20,22.00
2015,06,24,12,21,21.90
2015,06,24,12,22,21.90
2015,06,24,12,23,21.90
2015,06,24,12,24,21.90
2015,06,24,12,25,21.80
2015,06,24,12,26,21.90
2015,06,24,12,27,21.90
2015,06,24,12,28,21.80
2015,06,24,12,29,21.80
2015,06,24,12,30,21.80
2015,06,24,12,31,21.70
2015,06,24,12,32,21.70
2015,06,24,12,33,21.60
2015,06,24,12,34,21.60
2015,06,24,12,35,21.60
2015,06,24,12,36,21.60
2015,06,24,12,37,21.40
2015,06,24,12,38,21.40
2015,06,24,12,39,21.40
2015,06,24,12,40,21.40
2015,06,24,12,41,21.30
2015,06,24,12,42,21.30
2015,06,24,12,43,21.30
2015,06,24,12,44,21.30
2015,06,24,12,45,21.30
2015,06,24,12,46,21.30
2015,06,24,12,47,21.30
2015,06,24,12,48,21.30
2015,06,24,12,49,21.30
2015,06,24,12,50,21.30
2015,06,24,12,51,21.30
2015,06,24,12,52,21.40
2015,06,24,12,53,21.50
2015,06,24,12,54,21.60
2015,06,24,12,55,21.60
2015,06,24,12,56,21.60
2015,06,24,12,57,21.60
2015,06,24,12,58,21.50
2015,06,24,12,59,21.40
2015,06,24,13,00,21.30
2015,06,24,13,01,21.30
2015,06,24,13,02,21.30
2015,06,24,13,03,21.30
2015,06,24,13,04,21.30
2015,06,24,13,05,21.20
2015,06,24,13,06,21.20
2015,06,24,13,07,21.20
2015,06,24,13,08,21.20
2015,06,24,13,09,21.20
2015,06,24,13,10,21.20
2015,06,24,13,11,21.20
2015,06,24,13,12,21.20
2015,06,24,13,13,21.20
2015,06,24,13,14,21.20
2015,06,24,13,15,21.20
2015,06,24,13,16,21.10
2015,06,24,13,17,21.10
2015,06,24,13,18,21.20
2015,06,24,13,19,21.10
2015,06,24,13,20,21.10
2015,06,24,13,21,21.10
2015,06,24,13,22,21.20
2015,06,24,13,23,21.20
2015,06,24,13,24,21.20
2015,06,24,13,25,21.30
2015,06,24,13,26,21.30
2015,06,24,13,27,21.30
2015,06,24,13,28,21.30
2015,06,24,13,29,21.20
2015,06,24,13,30,21.20
2015,06,24,13,31,21.20
2015,06,24,13,32,21.20
2015,06,24,13,33,21.20
2015,06,24,13,34,21.30
2015,06,24,13,35,21.30
2015,06,24,13,36,21.30
2015,06,24,13,37,21.30
2015,06,24,13,38,21.30
2015,06,24,13,39,21.40
2015,06,24,13,40,21.40
2015,06,24,13,41,21.40
2015,06,24,13,42,21.40
2015,06,24,13,43,21.40
2015,06,24,13,44,21.50
2015,06,24,13,45,21.60
2015,06,24,13,46,21.60
2015,06,24,13,47,21.60
2015,06,24,13,48,21.60
2015,06,24,13,49,21.70
2015,06,24,13,50,21.70
2015,06,24,13,51,21.70
2015,06,24,13,52,21.70
2015,06,24,13,53,21.60
2015,06,24,13,54,21.60
2015,06,24,13,55,21.60
2015,06,24,13,56,21.60
2015,06,24,13,57,21.60
2015,06,24,13,58,21.60
2015,06,24,13,59,21.60
2015,06,24,14,00,21.60
2015,06,24,14,01,21.60
2015,06,24,14,02,21.60
2015,06,24,14,03,21.60
2015,06,24,14,04,21.60
2015,06,24,14,05,21.60
2015,06,24,14,06,21.40
2015,06,24,14,07,21.30
2015,06,24,14,08,21.30
2015,06,24,14,09,21.40
2015,06,24,14,10,21.40
2015,06,24,14,11,21.40
2015,06,24,14,12,21.30
2015,06,24,14,13,21.30
2015,06,24,14,14,21.30
2015,06,24,14,15,21.30
2015,06,24,14,16,21.30
2015,06,24,14,17,21.30
2015,06,24,14,18,21.30
2015,06,24,14,19,21.30
2015,06,24,14,20,21.30
2015,06,24,14,21,21.40
2015,06,24,14,22,21.40
2015,06,24,14,23,21.50
2015,06,24,14,24,21.60
2015,06,24,14,25,21.60
2015,06,24,14,26,21.60
2015,06,24,14,27,21.60
2015,06,24,14,28,21.70
2015,06,24,14,29,21.80
2015,06,24,14,30,21.80
2015,06,24,14,31,21.80
2015,06,24,14,32,21.80
2015,06,24,14,33,21.70
2015,06,24,14,34,21.70
2015,06,24,14,35,21.70
2015,06,24,14,36,21.80
2015,06,24,14,37,21.80
2015,06,24,14,38,21.80
2015,06,24,14,39,21.80
2015,06,24,14,40,21.80
2015,06,24,14,41,21.90
2015,06,24,14,42,21.90
2015,06,24,14,43,21.80
2015,06,24,14,44,21.80
2015,06,24,14,45,21.80
2015,06,24,14,46,21.80
2015,06,24,14,47,21.80
2015,06,24,14,48,21.80
2015,06,24,14,49,21.80
2015,06,24,14,50,21.70
2015,06,24,14,51,21.70
2015,06,24,14,52,21.70
2015,06,24,14,53,21.70
2015,06,24,14,54,21.70
2015,06,24,14,55,21.70
2015,06,24,14,56,21.80
2015,06,24,14,57,21.80
2015,06,24,14,58,21.90
2015,06,24,14,59,21.90
2015,06,24,15,00,22.00
2015,06,24,15,01,22.20
2015,06,24,15,02,22.50
2015,06,24,15,03,22.60
2015,06,24,15,04,22.80
2015,06,24,15,05,22.90
2015,06,24,15,06,22.80
2015,06,24,15,07,22.70
2015,06,24,15,08,22.70
2015,06,24,15,09,22.60
2015,06,24,15,10,22.50
2015,06,24,15,11,22.40
2015,06,24,15,12,22.30
2015,06,24,15,13,22.30
2015,06,24,15,14,22.30
2015,06,24,15,15,22.30
2015,06,24,15,16,22.40
2015,06,24,15,17,22.40
2015,06,24,15,18,22.40
2015,06,24,15,19,22.40
2015,06,24,15,20,22.30
2015,06,24,15,21,22.20
2015,06,24,15,22,22.20
2015,06,24,15,23,22.00
2015,06,24,15,24,22.00
2015,06,24,15,25,22.00
2015,06,24,15,26,22.10
2015,06,24,15,27,22.10
2015,06,24,15,28,22.10
2015,06,24,15,29,22.10
2015,06,24,15,30,22.10
2015,06,24,15,31,22.10
2015,06,24,15,32,22.10
2015,06,24,15,33,22.00
2015,06,24,15,34,21.90
2015,06,24,15,35,21.90
2015,06,24,15,36,21.90
2015,06,24,15,37,21.90
2015,06,24,15,38,22.00
2015,06,24,15,39,22.10
2015,06,24,15,40,22.10
2015,06,24,15,41,22.20
2015,06,24,15,42,22.20
2015,06,24,15,43,22.20
2015,06,24,15,44,22.30
2015,06,24,15,45,22.40
2015,06,24,15,46,22.50
2015,06,24,15,47,22.50
2015,06,24,15,48,22.60
2015,06,24,15,49,22.60
2015,06,24,15,50,22.60
2015,06,24,15,51,22.60
2015,06,24,15,52,22.70
2015,06,24,15,53,22.80
2015,06,24,15,54,22.70
2015,06,24,15,55,22.70
2015,06,24,15,56,22.60
2015,06,24,15,57,22.60
2015,06,24,15,58,22.40
2015,06,24,15,59,22.50
2015,06,24,16,00,22.50
2015,06,24,16,01,22.60
2015,06,24,16,02,22.70
2015,06,24,16,03,22.70
2015,06,24,16,04,22.80
2015,06,24,16,05,22.80
2015,06,24,16,06,22.90
2015,06,24,16,07,23.00
2015,06,24,16,08,23.10
2015,06,24,16,09,23.20
2015,06,24,16,10,23.30
2015,06,24,16,11,23.20
2015,06,24,16,12,23.10
2015,06,24,16,13,23.10
2015,06,24,16,14,23.20
2015,06,24,16,15,23.30
2015,06,24,16,16,23.40
2015,06,24,16,17,23.50
2015,06,24,16,18,23.60
2015,06,24,16,19,23.70
2015,06,24,16,20,23.80
2015,06,24,16,21,23.80
2015,06,24,16,22,23.90
2015,06,24,16,23,23.90
2015,06,24,16,24,23.90
2015,06,24,16,25,23.90
2015,06,24,16,26,23.80
2015,06,24,16,27,23.80
2015,06,24,16,28,23.70
2015,06,24,16,29,23.70
2015,06,24,16,30,23.70
2015,06,24,16,31,23.60
2015,06,24,16,32,23.70
2015,06,24,16,33,23.60
2015,06,24,16,34,23.60
2015,06,24,16,35,23.70
2015,06,24,16,36,23.60
2015,06,24,16,37,23.60
2015,06,24,16,38,23.70
2015,06,24,16,39,23.70
2015,06,24,16,40,23.70
2015,06,24,16,41,23.70
2015,06,24,16,42,23.70
2015,06,24,16,43,23.60
2015,06,24,16,44,23.50
2015,06,24,16,45,23.40
2015,06,24,16,46,23.30
2015,06,24,16,47,23.30
2015,06,24,16,48,23.10
2015,06,24,16,49,23.10
2015,06,24,16,50,23.00
2015,06,24,16,51,22.90
2015,06,24,16,52,23.00
2015,06,24,16,53,23.00
2015,06,24,16,54,23.10
2015,06,24,16,55,23.10
2015,06,24,16,56,23.20
2015,06,24,16,57,23.20
2015,06,24,16,58,23.20
2015,06,24,16,59,23.20
2015,06,24,17,00,23.20
2015,06,24,17,01,23.20
2015,06,24,17,02,23.10
2015,06,24,17,03,23.10
2015,06,24,17,04,23.20
2015,06,24,17,05,23.20
2015,06,24,17,06,23.30
2015,06,24,17,07,23.30
2015,06,24,17,08,23.30
2015,06,24,17,09,23.30
2015,06,24,17,10,23.30
2015,06,24,17,11,23.20
2015,06,24,17,12,23.10
2015,06,24,17,13,23.10
2015,06,24,17,14,23.10
2015,06,24,17,15,23.10
2015,06,24,17,16,23.10
2015,06,24,17,17,23.20
2015,06,24,17,18,23.30
2015,06,24,17,19,23.20
2015,06,24,17,20,23.10
2015,06,24,17,21,23.10
2015,06,24,17,22,23.20
2015,06,24,17,23,23.30
2015,06,24,17,24,23.30
2015,06,24,17,25,23.30
2015,06,24,17,26,23.30
2015,06,24,17,27,23.40
2015,06,24,17,28,23.40
2015,06,24,17,29,23.50
2015,06,24,17,30,23.60
2015,06,24,17,31,23.70
2015,06,24,17,32,23.70
2015,06,24,17,33,23.80
2015,06,24,17,34,24.00
2015,06,24,17,35,24.10
2015,06,24,17,36,24.10
2015,06,24,17,37,24.10
2015,06,24,17,38,24.10
2015,06,24,17,39,24.00
2015,06,24,17,40,23.90
2015,06,24,17,41,23.90
2015,06,24,17,42,23.80
2015,06,24,17,43,23.80
2015,06,24,17,44,23.70
2015,06,24,17,45,23.70
2015,06,24,17,46,23.70
2015,06,24,17,47,23.70
2015,06,24,17,48,23.70
2015,06,24,17,49,23.70
2015,06,24,17,50,23.70
2015,06,24,17,51,23.70
2015,06,24,17,52,23.70
2015,06,24,17,53,23.80
2015,06,24,17,54,23.80
2015,06,24,17,55,23.90
2015,06,24,17,56,23.90
2015,06,24,17,57,24.00
2015,06,24,17,58,24.10
2015,06,24,17,59,24.10
2015,06,24,18,00,24.10
2015,06,24,18,01,24.10
2015,06,24,18,02,24.10
2015,06,24,18,03,23.90
2015,06,24,18,04,23.90
2015,06,24,18,05,23.80
2015,06,24,18,06,23.70
2015,06,24,18,07,23.60
2015,06,24,18,08,23.50
2015,06,24,18,09,23.40
2015,06,24,18,10,23.40
2015,06,24,18,11,23.30
2015,06,24,18,12,23.30
2015,06,24,18,13,23.30
2015,06,24,18,14,23.30
2015,06,24,18,15,23.20
2015,06,24,18,16,23.20
2015,06,24,18,17,23.20
2015,06,24,18,18,23.20
2015,06,24,18,19,23.10
2015,06,24,18,20,23.10
2015,06,24,18,21,23.10
2015,06,24,18,22,23.10
2015,06,24,18,23,23.10
2015,06,24,18,24,23.10
2015,06,24,18,25,23.20
2015,06,24,18,26,23.20
2015,06,24,18,27,23.20
2015,06,24,18,28,23.20
2015,06,24,18,29,23.10
2015,06,24,18,30,23.10
2015,06,24,18,31,23.10
2015,06,24,18,32,23.10
2015,06,24,18,33,23.10
2015,06,24,18,34,23.10
2015,06,24,18,35,23.10
2015,06,24,18,36,23.00
2015,06,24,18,37,22.90
2015,06,24,18,38,22.90
2015,06,24,18,39,22.90
2015,06,24,18,40,22.90
2015,06,24,18,41,22.90
2015,06,24,18,42,22.90
2015,06,24,18,43,22.90
2015,06,24,18,44,22.90
2015,06,24,18,45,22.90
2015,06,24,18,46,22.90
2015,06,24,18,47,22.90
2015,06,24,18,48,22.90
2015,06,24,18,49,22.90
2015,06,24,18,50,22.90
2015,06,24,18,51,22.90
2015,06,24,18,52,22.90
2015,06,24,18,53,22.90
2015,06,24,18,54,22.90
2015,06,24,18,55,22.80
2015,06,24,18,56,22.80
2015,06,24,18,57,22.80
2015,06,24,18,58,22.80
2015,06,24,18,59,22.70
2015,06,24,19,00,22.70
2015,06,24,19,01,22.60
2015,06,24,19,02,22.60
2015,06,24,19,03,22.50
2015,06,24,19,04,22.50
2015,06,24,19,05,22.50
2015,06,24,19,06,22.50
2015,06,24,19,07,22.50
2015,06,24,19,08,22.40
2015,06,24,19,09,22.40
2015,06,24,19,10,22.50
2015,06,24,19,11,22.50
2015,06,24,19,12,22.50
2015,06,24,19,13,22.50
2015,06,24,19,14,22.50
2015,06,24,19,15,22.50
2015,06,24,19,16,22.50
2015,06,24,19,17,22.50
2015,06,24,19,18,22.60
2015,06,24,19,19,22.60
2015,06,24,19,20,22.60
2015,06,24,19,21,22.50
2015,06,24,19,22,22.50
2015,06,24,19,23,22.50
2015,06,24,19,24,22.50
2015,06,24,19,25,22.50
2015,06,24,19,26,22.50
2015,06,24,19,27,22.50
2015,06,24,19,28,22.50
2015,06,24,19,29,22.50
2015,06,24,19,30,22.50
2015,06,24,19,31,22.50
2015,06,24,19,32,22.40
2015,06,24,19,33,22.40
2015,06,24,19,34,22.30
2015,06,24,19,35,22.30
2015,06,24,19,36,22.20
2015,06,24,19,37,22.10
2015,06,24,19,38,22.10
2015,06,24,19,39,22.10
2015,06,24,19,40,22.00
2015,06,24,19,41,22.00
2015,06,24,19,42,22.00
2015,06,24,19,43,22.00
2015,06,24,19,44,21.90
2015,06,24,19,45,21.90
2015,06,24,19,46,21.80
2015,06,24,19,47,21.80
2015,06,24,19,48,21.80
2015,06,24,19,49,21.70
2015,06,24,19,50,21.70
2015,06,24,19,51,21.70
2015,06,24,19,52,21.70
2015,06,24,19,53,21.60
2015,06,24,19,54,21.60
2015,06,24,19,55,21.60
2015,06,24,19,56,21.60
2015,06,24,19,57,21.60
2015,06,24,19,58,21.60
2015,06,24,19,59,21.60
2015,06,24,20,00,21.60
2015,06,24,20,01,21.60
2015,06,24,20,02,21.60
2015,06,24,20,03,21.50
2015,06,24,20,04,21.40
2015,06,24,20,05,21.40
2015,06,24,20,06,21.40
2015,06,24,20,07,21.40
2015,06,24,20,08,21.30
2015,06,24,20,09,21.30
2015,06,24,20,10,21.30
2015,06,24,20,11,21.30
2015,06,24,20,12,21.30
2015,06,24,20,13,21.30
2015,06,24,20,14,21.30
2015,06,24,20,15,21.30
2015,06,24,20,16,21.30
2015,06,24,20,17,21.20
2015,06,24,20,18,21.20
2015,06,24,20,19,21.20
2015,06,24,20,20,21.20
2015,06,24,20,21,21.10
2015,06,24,20,22,21.10
2015,06,24,20,23,21.10
2015,06,24,20,24,21.00
2015,06,24,20,25,21.00
2015,06,24,20,26,21.00
2015,06,24,20,27,21.00
2015,06,24,20,28,20.90
2015,06,24,20,29,20.90
2015,06,24,20,30,20.90
2015,06,24,20,31,20.80
2015,06,24,20,32,20.80
2015,06,24,20,33,20.80
2015,06,24,20,34,20.70
2015,06,24,20,35,20.70
2015,06,24,20,36,20.70
2015,06,24,20,37,20.60
2015,06,24,20,38,20.60
2015,06,24,20,39,20.50
2015,06,24,20,40,20.50
2015,06,24,20,41,20.50
2015,06,24,20,42,20.40
2015,06,24,20,43,20.40
2015,06,24,20,44,20.30
2015,06,24,20,45,20.30
2015,06,24,20,46,20.20
2015,06,24,20,47,20.20
2015,06,24,20,48,20.20
2015,06,24,20,49,20.20
2015,06,24,20,50,20.10
2015,06,24,20,51,20.10
2015,06,24,20,52,20.00
2015,06,24,20,53,19.90
2015,06,24,20,54,19.90
2015,06,24,20,55,19.90
2015,06,24,20,56,19.80
2015,06,24,20,57,19.80
2015,06,24,20,58,19.70
2015,06,24,20,59,19.70
2015,06,24,21,00,19.60
2015,06,24,21,01,19.60
2015,06,24,21,02,19.50
2015,06,24,21,03,19.50
2015,06,24,21,04,19.40
2015,06,24,21,05,19.40
2015,06,24,21,06,19.30
2015,06,24,21,07,19.30
2015,06,24,21,08,19.20
2015,06,24,21,09,19.20
2015,06,24,21,10,19.10
2015,06,24,21,11,19.10
2015,06,24,21,12,19.10
2015,06,24,21,13,19.10
2015,06,24,21,14,19.00
2015,06,24,21,15,18.90
2015,06,24,21,16,18.90
2015,06,24,21,17,18.90
2015,06,24,21,18,18.90
2015,06,24,21,19,18.90
2015,06,24,21,20,18.80
2015,06,24,21,21,18.80
2015,06,24,21,22,18.80
2015,06,24,21,23,18.70
2015,06,24,21,24,18.70
2015,06,24,21,25,18.70
2015,06,24,21,26,18.60
2015,06,24,21,27,18.60
2015,06,24,21,28,18.60
2015,06,24,21,29,18.50
2015,06,24,21,30,18.50
2015,06,24,21,31,18.50
2015,06,24,21,32,18.40
2015,06,24,21,33,18.40
2015,06,24,21,34,18.40
2015,06,24,21,35,18.30
2015,06,24,21,36,18.30
2015,06,24,21,37,18.30
2015,06,24,21,38,18.20
2015,06,24,21,39,18.20
2015,06,24,21,40,18.20
2015,06,24,21,41,18.20
2015,06,24,21,42,18.10
2015,06,24,21,43,18.10
2015,06,24,21,44,18.10
2015,06,24,21,45,18.00
2015,06,24,21,46,17.90
2015,06,24,21,47,17.90
2015,06,24,21,48,17.90
2015,06,24,21,49,17.90
2015,06,24,21,50,17.90
2015,06,24,21,51,17.90
2015,06,24,21,52,17.90
2015,06,24,21,53,17.80
2015,06,24,21,54,17.80
2015,06,24,21,55,17.80
2015,06,24,21,56,17.80
2015,06,24,21,57,17.70
2015,06,24,21,58,17.70
2015,06,24,21,59,17.70
2015,06,24,22,00,17.70
2015,06,24,22,01,17.70
2015,06,24,22,02,17.70
2015,06,24,22,03,17.70
2015,06,24,22,04,17.60
2015,06,24,22,05,17.60
2015,06,24,22,06,17.60
2015,06,24,22,07,17.60
2015,06,24,22,08,17.60
2015,06,24,22,09,17.60
2015,06,24,22,10,17.50
2015,06,24,22,11,17.50
2015,06,24,22,12,17.50
2015,06,24,22,13,17.50
2015,06,24,22,14,17.50
2015,06,24,22,15,17.50
2015,06,24,22,16,17.50
2015,06,24,22,17,17.50
2015,06,24,22,18,17.50
2015,06,24,22,19,17.40
2015,06,24,22,20,17.40
2015,06,24,22,21,17.40
2015,06,24,22,22,17.40
2015,06,24,22,23,17.40
2015,06,24,22,24,17.40
2015,06,24,22,25,17.40
2015,06,24,22,26,17.40
2015,06,24,22,27,17.40
2015,06,24,22,28,17.40
2015,06,24,22,29,17.30
2015,06,24,22,30,17.30
2015,06,24,22,31,17.30
2015,06,24,22,32,17.30
2015,06,24,22,33,17.30
2015,06,24,22,34,17.30
2015,06,24,22,35,17.30
2015,06,24,22,36,17.30
2015,06,24,22,37,17.30
2015,06,24,22,38,17.20
2015,06,24,22,39,17.20
2015,06,24,22,40,17.20
2015,06,24,22,41,17.10
2015,06,24,22,42,17.10
2015,06,24,22,43,17.10
2015,06,24,22,44,17.00
2015,06,24,22,45,17.00
2015,06,24,22,46,17.00
2015,06,24,22,47,16.90
2015,06,24,22,48,16.90
2015,06,24,22,49,16.90
2015,06,24,22,50,16.80
2015,06,24,22,51,16.80
2015,06,24,22,52,16.80
2015,06,24,22,53,16.70
2015,06,24,22,54,16.70
2015,06,24,22,55,16.70
2015,06,24,22,56,16.70
2015,06,24,22,57,16.70
2015,06,24,22,58,16.70
2015,06,24,22,59,16.70
2015,06,24,23,00,16.70
2015,06,24,23,01,16.70
2015,06,24,23,02,16.60
2015,06,24,23,03,16.60
2015,06,24,23,04,16.60
2015,06,24,23,05,16.60
2015,06,24,23,06,16.60
2015,06,24,23,07,16.60
2015,06,24,23,08,16.60
2015,06,24,23,09,16.60
2015,06,24,23,10,16.60
2015,06,24,23,11,16.60
2015,06,24,23,12,16.60
2015,06,24,23,13,16.60
2015,06,24,23,14,16.60
2015,06,24,23,15,16.60
2015,06,24,23,16,16.60
